Location: Unspecified
(35.6961°N, 0.0000°E)
Time: 18:35:25
(UTC+00:00)

S-56A Canister/Altair - Pass Details

Date: 29 May 2019
Orbit: 633 x 2499 km, 38.9° (Epoch: 25 June)

Event Time Altitude Azimuth Distance (km) Brightness Sun altitude
Rises 01:04:49 0° 267° (W) 3,146 - -30.6°
Reaches altitude 10° 01:06:55 10° 270° (W) 2,348 - -30.4°
Exits shadow 01:11:17 58° 300° (WNW) 1,090 8.2 -30.1°
Maximum altitude 01:12:22 70° 355° (N) 1,048 8.2 -30.1°
Drops below altitude 10° 01:20:28 10° 78° (ENE) 3,439 11.2 -29.5°
Sets 01:24:09 0° 81° (E) 4,730 12.0 -29.2°
